Time,TemperatureF,DewpointF,PressureIn,WindDirection,WindDirectionDegrees,WindSpeedMPH,WindSpeedGustMPH,Humidity,HourlyPrecipIn,Conditions,Clouds,dailyrainin,SoftwareType,DateUTC
2013-05-13 00:04:00,40.8,29.6,30.06,West,262,0.0,0.0,64,0.00,,,0.00,Wunderground v.1.15,2013-05-13 05:04:00,
2013-05-13 00:10:00,40.3,29.8,30.06,West,262,0.0,0.0,66,0.00,,,0.00,Wunderground v.1.15,2013-05-13 05:10:00,
2013-05-13 00:16:00,40.3,30.2,30.06,West,262,0.0,0.0,67,0.00,,,0.00,Wunderground v.1.15,2013-05-13 05:16:00,
2013-05-13 00:22:00,40.5,31.1,30.06,West,262,0.0,0.0,69,0.00,,,0.00,Wunderground v.1.15,2013-05-13 05:22:00,
2013-05-13 00:28:00,40.2,30.8,30.06,West,262,0.0,0.0,69,0.00,,,0.00,Wunderground v.1.15,2013-05-13 05:28:00,
2013-05-13 00:34:00,40.2,31.2,30.06,West,262,0.0,0.0,70,0.00,,,0.00,Wunderground v.1.15,2013-05-13 05:34:00,
2013-05-13 00:40:00,39.9,30.9,30.06,West,262,0.0,0.0,70,0.00,,,0.00,Wunderground v.1.15,2013-05-13 05:40:00,
2013-05-13 00:46:00,39.7,30.7,30.06,West,262,0.0,0.0,70,0.00,,,0.00,Wunderground v.1.15,2013-05-13 05:46:00,
2013-05-13 00:52:00,39.3,31.0,30.06,West,262,0.0,0.0,72,0.00,,,0.00,Wunderground v.1.15,2013-05-13 05:52:00,
2013-05-13 00:58:00,39.2,30.9,30.07,West,262,0.0,0.0,72,0.00,,,0.00,Wunderground v.1.15,2013-05-13 05:58:00,
2013-05-13 01:04:00,39.2,30.9,30.06,West,262,0.0,0.0,72,0.00,,,0.00,Wunderground v.1.15,2013-05-13 06:04:00,
2013-05-13 01:10:00,39.2,30.6,30.07,West,262,0.0,0.0,71,0.00,,,0.00,Wunderground v.1.15,2013-05-13 06:10:00,
2013-05-13 01:16:00,39.1,30.8,30.07,West,262,0.0,0.0,72,0.00,,,0.00,Wunderground v.1.15,2013-05-13 06:16:00,
2013-05-13 01:22:00,38.8,30.2,30.06,West,262,0.0,0.0,71,0.00,,,0.00,Wunderground v.1.15,2013-05-13 06:22:00,
2013-05-13 01:28:00,38.7,30.4,30.06,West,262,0.0,0.0,72,0.00,,,0.00,Wunderground v.1.15,2013-05-13 06:28:00,
2013-05-13 01:34:00,38.7,30.4,30.07,West,262,0.0,0.0,72,0.00,,,0.00,Wunderground v.1.15,2013-05-13 06:34:00,
2013-05-13 01:40:00,38.4,30.8,30.06,West,262,0.0,0.0,74,0.00,,,0.00,Wunderground v.1.15,2013-05-13 06:40:00,
2013-05-13 01:46:00,38.1,30.5,30.06,West,262,0.0,0.0,74,0.00,,,0.00,Wunderground v.1.15,2013-05-13 06:46:00,
2013-05-13 01:52:00,37.9,30.7,30.06,West,262,0.0,0.0,75,0.00,,,0.00,Wunderground v.1.15,2013-05-13 06:52:00,
2013-05-13 01:58:00,37.7,31.1,30.06,West,262,0.0,0.0,77,0.00,,,0.00,Wunderground v.1.15,2013-05-13 06:58:00,
2013-05-13 02:04:00,37.6,31.4,30.05,West,262,0.0,0.0,78,0.00,,,0.00,Wunderground v.1.15,2013-05-13 07:04:00,
2013-05-13 02:10:00,37.6,31.0,30.05,West,262,0.0,0.0,77,0.00,,,0.00,Wunderground v.1.15,2013-05-13 07:10:00,
2013-05-13 02:16:00,37.6,31.7,30.05,West,262,0.0,0.0,79,0.00,,,0.00,Wunderground v.1.15,2013-05-13 07:16:00,
2013-05-13 02:22:00,37.5,31.6,30.05,West,262,0.0,0.0,79,0.00,,,0.00,Wunderground v.1.15,2013-05-13 07:22:00,
2013-05-13 02:28:00,37.7,31.5,30.06,West,262,0.0,0.0,78,0.00,,,0.00,Wunderground v.1.15,2013-05-13 07:28:00,
2013-05-13 02:34:00,38.1,31.8,30.06,West,262,0.0,0.0,78,0.00,,,0.00,Wunderground v.1.15,2013-05-13 07:34:00,
2013-05-13 02:40:00,37.9,32.0,30.06,West,262,0.0,0.0,79,0.00,,,0.00,Wunderground v.1.15,2013-05-13 07:40:00,
2013-05-13 02:46:00,37.6,32.0,30.06,West,262,0.0,0.0,80,0.00,,,0.00,Wunderground v.1.15,2013-05-13 07:46:00,
2013-05-13 02:52:00,37.5,31.9,30.07,West,262,0.0,0.0,80,0.00,,,0.00,Wunderground v.1.15,2013-05-13 07:52:00,
2013-05-13 02:58:00,37.8,32.2,30.06,West,262,0.0,0.0,80,0.00,,,0.00,Wunderground v.1.15,2013-05-13 07:58:00,
2013-05-13 03:04:00,37.8,32.5,30.06,West,262,0.0,0.0,81,0.00,,,0.00,Wunderground v.1.15,2013-05-13 08:04:00,
2013-05-13 03:10:00,37.7,32.4,30.06,West,262,0.0,0.0,81,0.00,,,0.00,Wunderground v.1.15,2013-05-13 08:10:00,
2013-05-13 03:16:00,37.8,32.5,30.06,West,262,0.0,0.0,81,0.00,,,0.00,Wunderground v.1.15,2013-05-13 08:16:00,
2013-05-13 03:22:00,37.7,32.7,30.06,West,262,0.0,0.0,82,0.00,,,0.00,Wunderground v.1.15,2013-05-13 08:22:00,
2013-05-13 03:28:00,37.9,32.9,30.06,West,262,0.0,0.0,82,0.00,,,0.00,Wunderground v.1.15,2013-05-13 08:28:00,
2013-05-13 03:34:00,38.4,32.8,30.06,West,262,0.0,0.0,80,0.00,,,0.00,Wunderground v.1.15,2013-05-13 08:34:00,
2013-05-13 03:40:00,38.5,32.2,30.06,West,262,0.0,0.0,78,0.00,,,0.00,Wunderground v.1.15,2013-05-13 08:40:00,
2013-05-13 03:46:00,38.6,32.0,30.06,West,262,0.0,0.0,77,0.00,,,0.00,Wunderground v.1.15,2013-05-13 08:46:00,
2013-05-13 03:52:00,38.5,31.9,30.06,West,262,0.0,0.0,77,0.00,,,0.00,Wunderground v.1.15,2013-05-13 08:52:00,
2013-05-13 03:58:00,38.1,32.2,30.06,West,262,0.0,0.0,79,0.00,,,0.00,Wunderground v.1.15,2013-05-13 08:58:00,
2013-05-13 04:04:00,37.8,31.9,30.06,West,262,0.0,0.0,79,0.00,,,0.00,Wunderground v.1.15,2013-05-13 09:04:00,
2013-05-13 04:10:00,37.5,31.9,30.06,West,262,0.0,0.0,80,0.00,,,0.00,Wunderground v.1.15,2013-05-13 09:10:00,
2013-05-13 04:16:00,37.5,31.9,30.05,West,262,0.0,0.0,80,0.00,,,0.00,Wunderground v.1.15,2013-05-13 09:16:00,
2013-05-13 04:22:00,37.9,31.7,30.05,West,262,0.0,0.0,78,0.00,,,0.00,Wunderground v.1.15,2013-05-13 09:22:00,
2013-05-13 04:28:00,37.7,31.8,30.05,West,262,0.0,0.0,79,0.00,,,0.00,Wunderground v.1.15,2013-05-13 09:28:00,
2013-05-13 04:34:00,37.5,31.9,30.05,West,262,0.0,0.0,80,0.00,,,0.00,Wunderground v.1.15,2013-05-13 09:34:00,
2013-05-13 04:39:00,37.4,32.4,30.05,West,262,0.0,0.0,82,0.00,,,0.00,Wunderground v.1.15,2013-05-13 09:39:00,
2013-05-13 04:46:00,37.2,32.2,30.05,West,262,0.0,0.0,82,0.00,,,0.00,Wunderground v.1.15,2013-05-13 09:46:00,
2013-05-13 04:51:00,36.9,32.2,30.05,West,262,0.0,0.0,83,0.00,,,0.00,Wunderground v.1.15,2013-05-13 09:51:00,
2013-05-13 04:58:00,36.9,31.9,30.05,West,262,0.0,0.0,82,0.00,,,0.00,Wunderground v.1.15,2013-05-13 09:58:00,
2013-05-13 05:04:00,36.8,32.1,30.05,West,262,0.0,0.0,83,0.00,,,0.00,Wunderground v.1.15,2013-05-13 10:04:00,
2013-05-13 05:10:00,36.7,31.7,30.05,West,262,0.0,0.0,82,0.00,,,0.00,Wunderground v.1.15,2013-05-13 10:10:00,
2013-05-13 05:16:00,36.8,30.9,30.05,West,262,0.0,0.0,79,0.00,,,0.00,Wunderground v.1.15,2013-05-13 10:16:00,
2013-05-13 05:22:00,37.1,31.5,30.05,West,262,0.0,0.0,80,0.00,,,0.00,Wunderground v.1.15,2013-05-13 10:22:00,
2013-05-13 05:28:00,36.8,31.5,30.05,West,262,0.0,0.0,81,0.00,,,0.00,Wunderground v.1.15,2013-05-13 10:28:00,
2013-05-13 05:34:00,36.7,31.1,30.05,West,262,0.0,0.0,80,0.00,,,0.00,Wunderground v.1.15,2013-05-13 10:34:00,
2013-05-13 05:40:00,36.6,30.7,30.06,West,262,0.0,0.0,79,0.00,,,0.00,Wunderground v.1.15,2013-05-13 10:40:00,
2013-05-13 05:46:00,36.5,31.2,30.06,West,262,0.0,0.0,81,0.00,,,0.00,Wunderground v.1.15,2013-05-13 10:46:00,
2013-05-13 05:52:00,36.0,30.7,30.06,West,262,0.0,0.0,81,0.00,,,0.00,Wunderground v.1.15,2013-05-13 10:52:00,
2013-05-13 05:58:00,35.9,31.2,30.06,West,262,0.0,0.0,83,0.00,,,0.00,Wunderground v.1.15,2013-05-13 10:58:00,
2013-05-13 06:03:00,35.8,31.1,30.06,West,262,0.0,0.0,83,0.00,,,0.00,Wunderground v.1.15,2013-05-13 11:03:00,
2013-05-13 06:10:00,35.5,31.1,30.06,West,262,0.0,0.0,84,0.00,,,0.00,Wunderground v.1.15,2013-05-13 11:10:00,
2013-05-13 06:15:00,35.5,31.1,30.06,West,262,0.0,0.0,84,0.00,,,0.00,Wunderground v.1.15,2013-05-13 11:15:00,
2013-05-13 06:22:00,35.6,31.2,30.06,West,262,0.0,0.0,84,0.00,,,0.00,Wunderground v.1.15,2013-05-13 11:22:00,
2013-05-13 06:28:00,36.0,31.0,30.06,West,262,0.0,0.0,82,0.00,,,0.00,Wunderground v.1.15,2013-05-13 11:28:00,
2013-05-13 06:34:00,36.7,31.4,30.06,West,262,0.0,0.0,81,0.00,,,0.00,Wunderground v.1.15,2013-05-13 11:34:00,
2013-05-13 06:40:00,37.4,31.8,30.07,West,262,0.0,0.0,80,0.00,,,0.00,Wunderground v.1.15,2013-05-13 11:40:00,
2013-05-13 06:46:00,38.4,32.5,30.07,West,262,0.0,0.0,79,0.00,,,0.00,Wunderground v.1.15,2013-05-13 11:46:00,
2013-05-13 06:52:00,39.6,32.7,30.07,West,262,0.0,0.0,76,0.00,,,0.00,Wunderground v.1.15,2013-05-13 11:52:00,
2013-05-13 06:58:00,41.5,33.8,30.07,West,262,0.0,0.0,74,0.00,,,0.00,Wunderground v.1.15,2013-05-13 11:58:00,
2013-05-13 07:04:00,42.2,33.5,30.07,SSE,150,0.0,1.0,71,0.00,,,0.00,Wunderground v.1.15,2013-05-13 12:04:00,
2013-05-13 07:10:00,42.0,33.6,30.07,SSE,148,0.0,0.0,72,0.00,,,0.00,Wunderground v.1.15,2013-05-13 12:10:00,
2013-05-13 07:16:00,42.0,32.6,30.08,SE,128,0.0,0.0,69,0.00,,,0.00,Wunderground v.1.15,2013-05-13 12:16:00,
2013-05-13 07:22:00,42.3,33.2,30.08,SE,128,0.0,0.0,70,0.00,,,0.00,Wunderground v.1.15,2013-05-13 12:22:00,
2013-05-13 07:27:00,43.1,33.6,30.08,SE,127,0.0,1.0,69,0.00,,,0.00,Wunderground v.1.15,2013-05-13 12:27:00,
2013-05-13 07:34:00,44.2,34.3,30.08,SE,127,0.0,1.0,68,0.00,,,0.00,Wunderground v.1.15,2013-05-13 12:34:00,
2013-05-13 07:39:00,45.1,34.0,30.08,SE,133,0.0,0.0,65,0.00,,,0.00,Wunderground v.1.15,2013-05-13 12:39:00,
2013-05-13 07:46:00,45.5,34.0,30.07,ESE,116,0.0,1.0,64,0.00,,,0.00,Wunderground v.1.15,2013-05-13 12:46:00,
2013-05-13 07:52:00,46.0,33.7,30.07,ESE,117,0.0,1.0,62,0.00,,,0.00,Wunderground v.1.15,2013-05-13 12:52:00,
2013-05-13 07:58:00,46.8,34.0,30.08,SE,130,0.0,1.0,61,0.00,,,0.00,Wunderground v.1.15,2013-05-13 12:58:00,
2013-05-13 08:04:00,47.7,33.2,30.08,SE,128,1.0,1.0,57,0.00,,,0.00,Wunderground v.1.15,2013-05-13 13:04:00,
2013-05-13 08:10:00,48.5,33.9,30.08,SE,132,0.0,0.0,57,0.00,,,0.00,Wunderground v.1.15,2013-05-13 13:10:00,
2013-05-13 08:16:00,49.1,34.5,30.08,SE,137,1.0,1.0,57,0.00,,,0.00,Wunderground v.1.15,2013-05-13 13:16:00,
2013-05-13 08:22:00,49.7,35.1,30.08,SSE,160,1.0,1.0,57,0.00,,,0.00,Wunderground v.1.15,2013-05-13 13:22:00,
2013-05-13 08:28:00,50.5,35.4,30.08,SE,128,1.0,1.0,56,0.00,,,0.00,Wunderground v.1.15,2013-05-13 13:28:00,
2013-05-13 08:34:00,51.2,34.6,30.08,SE,142,1.0,2.0,53,0.00,,,0.00,Wunderground v.1.15,2013-05-13 13:34:00,
2013-05-13 08:40:00,51.6,34.5,30.08,SE,128,1.0,1.0,52,0.00,,,0.00,Wunderground v.1.15,2013-05-13 13:40:00,
2013-05-13 08:46:00,52.4,34.8,30.08,SSW,211,1.0,1.0,51,0.00,,,0.00,Wunderground v.1.15,2013-05-13 13:46:00,
2013-05-13 08:52:00,52.9,33.7,30.08,SE,131,1.0,1.0,48,0.00,,,0.00,Wunderground v.1.15,2013-05-13 13:52:00,
2013-05-13 08:58:00,53.7,33.9,30.08,SE,137,1.0,2.0,47,0.00,,,0.00,Wunderground v.1.15,2013-05-13 13:58:00,
2013-05-13 09:04:00,54.2,33.3,30.08,WSW,250,1.0,3.0,45,0.00,,,0.00,Wunderground v.1.15,2013-05-13 14:04:00,
2013-05-13 09:10:00,54.8,34.9,30.08,South,173,1.0,1.0,47,0.00,,,0.00,Wunderground v.1.15,2013-05-13 14:10:00,
2013-05-13 09:16:00,55.1,34.7,30.07,SSE,155,1.0,1.0,46,0.00,,,0.00,Wunderground v.1.15,2013-05-13 14:16:00,
2013-05-13 09:22:00,55.6,35.1,30.07,SSE,162,2.0,3.0,46,0.00,,,0.00,Wunderground v.1.15,2013-05-13 14:22:00,
2013-05-13 09:28:00,56.2,36.8,30.07,SW,235,2.0,4.0,48,0.00,,,0.00,Wunderground v.1.15,2013-05-13 14:28:00,
2013-05-13 09:34:00,56.4,33.0,30.07,SSE,156,2.0,3.0,41,0.00,,,0.00,Wunderground v.1.15,2013-05-13 14:34:00,
2013-05-13 09:40:00,56.8,33.3,30.07,SW,215,2.0,2.0,41,0.00,,,0.00,Wunderground v.1.15,2013-05-13 14:40:00,
2013-05-13 09:46:00,57.5,33.3,30.07,SE,131,1.0,2.0,40,0.00,,,0.00,Wunderground v.1.15,2013-05-13 14:46:00,
2013-05-13 09:52:00,58.0,34.4,30.07,SSE,164,1.0,3.0,41,0.00,,,0.00,Wunderground v.1.15,2013-05-13 14:52:00,
2013-05-13 09:58:00,58.3,34.1,30.06,SSE,160,1.0,3.0,40,0.00,,,0.00,Wunderground v.1.15,2013-05-13 14:58:00,
2013-05-13 10:04:00,58.5,33.0,30.06,West,276,1.0,1.0,38,0.00,,,0.00,Wunderground v.1.15,2013-05-13 15:04:00,
2013-05-13 10:10:00,59.3,30.2,30.06,SW,233,2.0,3.0,33,0.00,,,0.00,Wunderground v.1.15,2013-05-13 15:10:00,
2013-05-13 10:16:00,60.0,31.5,30.05,SSW,208,3.0,4.0,34,0.00,,,0.00,Wunderground v.1.15,2013-05-13 15:16:00,
2013-05-13 10:22:00,60.5,32.0,30.06,SSE,158,3.0,5.0,34,0.00,,,0.00,Wunderground v.1.15,2013-05-13 15:22:00,
2013-05-13 10:28:00,61.1,33.2,30.06,SSW,212,2.0,5.0,35,0.00,,,0.00,Wunderground v.1.15,2013-05-13 15:28:00,
2013-05-13 10:34:00,60.9,30.8,30.05,WSW,250,3.0,7.0,32,0.00,,,0.00,Wunderground v.1.15,2013-05-13 15:34:00,
2013-05-13 10:39:00,61.2,32.6,30.05,SSW,208,3.0,3.0,34,0.00,,,0.00,Wunderground v.1.15,2013-05-13 15:39:00,
2013-05-13 10:46:00,61.9,32.5,30.05,SW,226,2.0,5.0,33,0.00,,,0.00,Wunderground v.1.15,2013-05-13 15:46:00,
2013-05-13 10:51:00,62.5,32.2,30.05,SE,144,2.0,3.0,32,0.00,,,0.00,Wunderground v.1.15,2013-05-13 15:51:00,
2013-05-13 10:58:00,63.2,31.2,30.05,South,186,2.0,4.0,30,0.00,,,0.00,Wunderground v.1.15,2013-05-13 15:58:00,
2013-05-13 11:04:00,63.5,32.3,30.05,SSW,205,2.0,3.0,31,0.00,,,0.00,Wunderground v.1.15,2013-05-13 16:04:00,
2013-05-13 11:10:00,64.3,33.0,30.05,SSE,159,2.0,2.0,31,0.00,,,0.00,Wunderground v.1.15,2013-05-13 16:10:00,
2013-05-13 11:16:00,64.4,31.4,30.04,SSE,167,2.0,3.0,29,0.00,,,0.00,Wunderground v.1.15,2013-05-13 16:16:00,
2013-05-13 11:22:00,64.2,32.1,30.04,SSE,150,3.0,3.0,30,0.00,,,0.00,Wunderground v.1.15,2013-05-13 16:22:00,
2013-05-13 11:28:00,64.4,31.4,30.04,SSE,167,2.0,4.0,29,0.00,,,0.00,Wunderground v.1.15,2013-05-13 16:28:00,
2013-05-13 11:34:00,64.3,32.2,30.04,SW,223,3.0,4.0,30,0.00,,,0.00,Wunderground v.1.15,2013-05-13 16:34:00,
2013-05-13 11:40:00,64.4,29.7,30.04,SSW,204,3.0,4.0,27,0.00,,,0.00,Wunderground v.1.15,2013-05-13 16:40:00,
2013-05-13 11:46:00,64.3,30.5,30.03,SSW,195,3.0,4.0,28,0.00,,,0.00,Wunderground v.1.15,2013-05-13 16:46:00,
2013-05-13 11:52:00,64.6,28.9,30.03,SSW,212,2.0,3.0,26,0.00,,,0.00,Wunderground v.1.15,2013-05-13 16:52:00,
2013-05-13 11:58:00,64.5,31.5,30.03,SSW,212,2.0,3.0,29,0.00,,,0.00,Wunderground v.1.15,2013-05-13 16:58:00,
2013-05-13 12:04:00,64.3,29.6,30.03,SSE,155,3.0,6.0,27,0.00,,,0.00,Wunderground v.1.15,2013-05-13 17:04:00,
2013-05-13 12:10:00,64.2,29.5,30.02,WSW,246,3.0,3.0,27,0.00,,,0.00,Wunderground v.1.15,2013-05-13 17:10:00,
2013-05-13 12:16:00,64.5,29.7,30.02,SSE,150,2.0,4.0,27,0.00,,,0.00,Wunderground v.1.15,2013-05-13 17:16:00,
2013-05-13 12:22:00,64.9,31.9,30.02,South,169,2.0,3.0,29,0.00,,,0.00,Wunderground v.1.15,2013-05-13 17:22:00,
2013-05-13 12:28:00,65.4,32.3,30.01,SSE,167,2.0,3.0,29,0.00,,,0.00,Wunderground v.1.15,2013-05-13 17:28:00,
2013-05-13 12:34:00,65.8,30.9,30.01,NW,313,2.0,3.0,27,0.00,,,0.00,Wunderground v.1.15,2013-05-13 17:34:00,
2013-05-13 12:40:00,65.8,30.9,30.01,SSE,162,3.0,3.0,27,0.00,,,0.00,Wunderground v.1.15,2013-05-13 17:40:00,
2013-05-13 12:46:00,65.7,32.5,30.00,SSE,152,3.0,5.0,29,0.00,,,0.00,Wunderground v.1.15,2013-05-13 17:46:00,
2013-05-13 12:52:00,65.8,33.5,30.00,South,179,3.0,3.0,30,0.00,,,0.00,Wunderground v.1.15,2013-05-13 17:52:00,
2013-05-13 12:58:00,66.4,34.0,29.99,SSE,155,3.0,7.0,30,0.00,,,0.00,Wunderground v.1.15,2013-05-13 17:58:00,
2013-05-13 13:04:00,67.0,36.1,29.99,SSE,158,3.0,4.0,32,0.00,,,0.00,Wunderground v.1.15,2013-05-13 18:04:00,
2013-05-13 13:09:00,67.3,36.4,29.98,SSW,200,3.0,4.0,32,0.00,,,0.00,Wunderground v.1.15,2013-05-13 18:09:00,
2013-05-13 13:16:00,67.6,34.2,29.99,WSW,239,4.0,9.0,29,0.00,,,0.00,Wunderground v.1.15,2013-05-13 18:16:00,
2013-05-13 13:21:00,68.0,36.2,29.99,SSE,158,3.0,5.0,31,0.00,,,0.00,Wunderground v.1.15,2013-05-13 18:21:00,
2013-05-13 13:28:00,67.5,35.0,29.98,South,169,3.0,5.0,30,0.00,,,0.00,Wunderground v.1.15,2013-05-13 18:28:00,
2013-05-13 13:34:00,67.5,35.8,29.98,SSE,152,3.0,4.0,31,0.00,,,0.00,Wunderground v.1.15,2013-05-13 18:34:00,
2013-05-13 13:40:00,67.4,38.0,29.97,SE,128,3.0,3.0,34,0.00,,,0.00,Wunderground v.1.15,2013-05-13 18:40:00,
2013-05-13 13:46:00,67.0,36.9,29.97,SW,218,3.0,5.0,33,0.00,,,0.00,Wunderground v.1.15,2013-05-13 18:46:00,
2013-05-13 13:52:00,67.1,37.8,29.97,West,259,4.0,4.0,34,0.00,,,0.00,Wunderground v.1.15,2013-05-13 18:52:00,
2013-05-13 13:58:00,67.3,37.2,29.97,SSE,167,3.0,4.0,33,0.00,,,0.00,Wunderground v.1.15,2013-05-13 18:58:00,
2013-05-13 14:04:00,66.7,37.4,29.96,SE,146,2.0,8.0,34,0.00,,,0.00,Wunderground v.1.15,2013-05-13 19:04:00,
2013-05-13 14:10:00,65.8,39.5,29.95,SSE,159,3.0,5.0,38,0.00,,,0.00,Wunderground v.1.15,2013-05-13 19:10:00,
2013-05-13 14:16:00,65.4,39.1,29.95,South,181,3.0,5.0,38,0.00,,,0.00,Wunderground v.1.15,2013-05-13 19:16:00,
2013-05-13 14:22:00,66.2,39.8,29.95,SE,131,3.0,4.0,38,0.00,,,0.00,Wunderground v.1.15,2013-05-13 19:22:00,
2013-05-13 14:28:00,67.7,39.0,29.94,SW,217,4.0,4.0,35,0.00,,,0.00,Wunderground v.1.15,2013-05-13 19:28:00,
2013-05-13 14:34:00,68.6,39.1,29.94,WSW,248,4.0,4.0,34,0.00,,,0.00,Wunderground v.1.15,2013-05-13 19:34:00,
2013-05-13 14:40:00,68.7,40.7,29.94,SW,219,5.0,5.0,36,0.00,,,0.00,Wunderground v.1.15,2013-05-13 19:40:00,
2013-05-13 14:46:00,69.2,38.1,29.93,SSE,158,5.0,5.0,32,0.00,,,0.00,Wunderground v.1.15,2013-05-13 19:46:00,
2013-05-13 14:52:00,68.5,39.8,29.93,SE,134,6.0,6.0,35,0.00,,,0.00,Wunderground v.1.15,2013-05-13 19:52:00,
2013-05-13 14:58:00,68.3,39.6,29.92,South,181,5.0,6.0,35,0.00,,,0.00,Wunderground v.1.15,2013-05-13 19:58:00,
2013-05-13 15:04:00,68.4,38.9,29.92,SSE,155,5.0,5.0,34,0.00,,,0.00,Wunderground v.1.15,2013-05-13 20:04:00,
2013-05-13 15:10:00,68.4,39.7,29.92,SW,228,5.0,5.0,35,0.00,,,0.00,Wunderground v.1.15,2013-05-13 20:10:00,
2013-05-13 15:16:00,68.1,40.1,29.92,South,170,4.0,5.0,36,0.00,,,0.00,Wunderground v.1.15,2013-05-13 20:16:00,
2013-05-13 15:22:00,68.0,40.7,29.91,South,176,4.0,4.0,37,0.00,,,0.00,Wunderground v.1.15,2013-05-13 20:22:00,
2013-05-13 15:28:00,68.9,41.5,29.90,SE,141,4.0,5.0,37,0.00,,,0.00,Wunderground v.1.15,2013-05-13 20:28:00,
2013-05-13 15:34:00,69.8,40.9,29.90,SSE,167,5.0,7.0,35,0.00,,,0.00,Wunderground v.1.15,2013-05-13 20:34:00,
2013-05-13 15:40:00,70.2,40.5,29.89,SSE,158,6.0,8.0,34,0.00,,,0.00,Wunderground v.1.15,2013-05-13 20:40:00,
2013-05-13 15:46:00,70.2,40.5,29.89,SSE,155,6.0,8.0,34,0.00,,,0.00,Wunderground v.1.15,2013-05-13 20:46:00,
2013-05-13 15:52:00,70.4,40.7,29.89,South,190,5.0,5.0,34,0.00,,,0.00,Wunderground v.1.15,2013-05-13 20:52:00,
2013-05-13 15:58:00,70.2,41.3,29.89,SSE,160,5.0,7.0,35,0.00,,,0.00,Wunderground v.1.15,2013-05-13 20:58:00,
2013-05-13 16:04:00,70.4,40.7,29.88,SE,145,5.0,7.0,34,0.00,,,0.00,Wunderground v.1.15,2013-05-13 21:04:00,
2013-05-13 16:10:00,70.4,40.7,29.88,SSE,150,5.0,7.0,34,0.00,,,0.00,Wunderground v.1.15,2013-05-13 21:10:00,
2013-05-13 16:16:00,70.5,42.2,29.88,SSW,197,6.0,7.0,36,0.00,,,0.00,Wunderground v.1.15,2013-05-13 21:16:00,
2013-05-13 16:22:00,70.9,41.1,29.88,SW,214,6.0,7.0,34,0.00,,,0.00,Wunderground v.1.15,2013-05-13 21:22:00,
2013-05-13 16:28:00,71.3,41.5,29.87,South,179,6.0,9.0,34,0.00,,,0.00,Wunderground v.1.15,2013-05-13 21:28:00,
2013-05-13 16:34:00,71.4,41.6,29.87,SE,146,5.0,8.0,34,0.00,,,0.00,Wunderground v.1.15,2013-05-13 21:34:00,
2013-05-13 16:40:00,71.1,42.0,29.87,South,181,5.0,8.0,35,0.00,,,0.00,Wunderground v.1.15,2013-05-13 21:40:00,
2013-05-13 16:46:00,71.2,42.1,29.86,SSW,198,6.0,8.0,35,0.00,,,0.00,Wunderground v.1.15,2013-05-13 21:46:00,
2013-05-13 16:52:00,71.3,41.5,29.86,South,170,5.0,7.0,34,0.00,,,0.00,Wunderground v.1.15,2013-05-13 21:52:00,
2013-05-13 16:58:00,71.3,41.5,29.86,SE,146,6.0,7.0,34,0.00,,,0.00,Wunderground v.1.15,2013-05-13 21:58:00,
2013-05-13 17:04:00,71.6,41.7,29.86,South,169,6.0,8.0,34,0.00,,,0.00,Wunderground v.1.15,2013-05-13 22:04:00,
2013-05-13 17:10:00,71.9,42.8,29.85,SSW,205,4.0,4.0,35,0.00,,,0.00,Wunderground v.1.15,2013-05-13 22:10:00,
2013-05-13 17:16:00,71.8,42.7,29.85,SSW,203,5.0,8.0,35,0.00,,,0.00,Wunderground v.1.15,2013-05-13 22:16:00,
2013-05-13 17:22:00,71.8,43.4,29.85,SSE,165,6.0,6.0,36,0.00,,,0.00,Wunderground v.1.15,2013-05-13 22:22:00,
2013-05-13 17:28:00,71.8,43.4,29.85,SE,141,6.0,9.0,36,0.00,,,0.00,Wunderground v.1.15,2013-05-13 22:28:00,
2013-05-13 17:34:00,71.8,43.4,29.85,South,181,6.0,8.0,36,0.00,,,0.00,Wunderground v.1.15,2013-05-13 22:34:00,
2013-05-13 17:40:00,71.8,44.1,29.85,South,180,6.0,6.0,37,0.00,,,0.00,Wunderground v.1.15,2013-05-13 22:40:00,
2013-05-13 17:46:00,71.8,43.4,29.84,South,174,6.0,9.0,36,0.00,,,0.00,Wunderground v.1.15,2013-05-13 22:46:00,
2013-05-13 17:52:00,71.7,44.0,29.84,SSE,160,6.0,6.0,37,0.00,,,0.00,Wunderground v.1.15,2013-05-13 22:52:00,
2013-05-13 17:58:00,71.8,44.1,29.84,South,179,6.0,6.0,37,0.00,,,0.00,Wunderground v.1.15,2013-05-13 22:58:00,
2013-05-13 18:04:00,71.8,44.1,29.84,SSE,165,5.0,7.0,37,0.00,,,0.00,Wunderground v.1.15,2013-05-13 23:04:00,
2013-05-13 18:10:00,71.6,43.9,29.83,SSE,150,5.0,5.0,37,0.00,,,0.00,Wunderground v.1.15,2013-05-13 23:10:00,
2013-05-13 18:16:00,71.4,45.1,29.83,SSE,166,6.0,6.0,39,0.00,,,0.00,Wunderground v.1.15,2013-05-13 23:16:00,
2013-05-13 18:22:00,71.6,45.3,29.83,SSE,167,5.0,6.0,39,0.00,,,0.00,Wunderground v.1.15,2013-05-13 23:22:00,
2013-05-13 18:28:00,71.9,44.9,29.82,SSE,151,5.0,7.0,38,0.00,,,0.00,Wunderground v.1.15,2013-05-13 23:28:00,
2013-05-13 18:34:00,72.1,45.8,29.82,SE,146,5.0,5.0,39,0.00,,,0.00,Wunderground v.1.15,2013-05-13 23:34:00,
2013-05-13 18:40:00,72.6,44.8,29.82,SSW,195,3.0,3.0,37,0.00,,,0.00,Wunderground v.1.15,2013-05-13 23:40:00,
2013-05-13 18:46:00,72.8,44.3,29.82,South,180,4.0,7.0,36,0.00,,,0.00,Wunderground v.1.15,2013-05-13 23:46:00,
2013-05-13 18:52:00,72.6,44.1,29.82,South,170,4.0,5.0,36,0.00,,,0.00,Wunderground v.1.15,2013-05-13 23:52:00,
2013-05-13 18:58:00,72.5,44.0,29.82,SW,216,4.0,6.0,36,0.00,,,0.00,Wunderground v.1.15,2013-05-13 23:58:00,
2013-05-13 19:04:00,72.4,43.9,29.83,South,173,4.0,4.0,36,0.00,,,0.00,Wunderground v.1.15,2013-05-14 00:04:00,
2013-05-13 19:10:00,72.3,44.6,29.83,SSE,165,3.0,3.0,37,0.00,,,0.00,Wunderground v.1.15,2013-05-14 00:10:00,
2013-05-13 19:16:00,72.1,45.1,29.83,SSE,167,4.0,4.0,38,0.00,,,0.00,Wunderground v.1.15,2013-05-14 00:16:00,
2013-05-13 19:22:00,71.6,43.9,29.83,SSE,158,4.0,4.0,37,0.00,,,0.00,Wunderground v.1.15,2013-05-14 00:22:00,
2013-05-13 19:28:00,71.0,44.8,29.83,SE,138,3.0,4.0,39,0.00,,,0.00,Wunderground v.1.15,2013-05-14 00:28:00,
2013-05-13 19:34:00,70.1,44.6,29.83,South,174,4.0,7.0,40,0.00,,,0.00,Wunderground v.1.15,2013-05-14 00:34:00,
2013-05-13 19:40:00,69.3,45.2,29.83,SSE,155,4.0,4.0,42,0.00,,,0.00,Wunderground v.1.15,2013-05-14 00:40:00,
2013-05-13 19:46:00,68.7,44.7,29.83,South,176,4.0,4.0,42,0.00,,,0.00,Wunderground v.1.15,2013-05-14 00:46:00,
2013-05-13 19:52:00,68.1,44.7,29.82,SSE,153,4.0,4.0,43,0.00,,,0.00,Wunderground v.1.15,2013-05-14 00:52:00,
2013-05-13 19:58:00,67.8,45.1,29.82,SSE,165,3.0,6.0,44,0.00,,,0.00,Wunderground v.1.15,2013-05-14 00:58:00,
2013-05-13 20:04:00,67.5,44.8,29.82,SE,136,3.0,4.0,44,0.00,,,0.00,Wunderground v.1.15,2013-05-14 01:04:00,
2013-05-13 20:10:00,67.2,44.5,29.81,SE,142,3.0,3.0,44,0.00,,,0.00,Wunderground v.1.15,2013-05-14 01:10:00,
2013-05-13 20:16:00,66.9,44.9,29.81,SSE,165,4.0,4.0,45,0.00,,,0.00,Wunderground v.1.15,2013-05-14 01:16:00,
2013-05-13 20:22:00,66.7,45.3,29.81,SSE,165,4.0,4.0,46,0.00,,,0.00,Wunderground v.1.15,2013-05-14 01:22:00,
2013-05-13 20:28:00,66.3,44.9,29.81,South,171,4.0,5.0,46,0.00,,,0.00,Wunderground v.1.15,2013-05-14 01:28:00,
2013-05-13 20:34:00,65.8,45.0,29.80,SSE,165,3.0,5.0,47,0.00,,,0.00,Wunderground v.1.15,2013-05-14 01:34:00,
2013-05-13 20:40:00,65.7,45.5,29.80,SE,145,4.0,4.0,48,0.00,,,0.00,Wunderground v.1.15,2013-05-14 01:40:00,
2013-05-13 20:46:00,65.5,45.3,29.80,SSE,158,4.0,8.0,48,0.00,,,0.00,Wunderground v.1.15,2013-05-14 01:46:00,
2013-05-13 20:52:00,65.2,45.5,29.80,SSE,162,3.0,4.0,49,0.00,,,0.00,Wunderground v.1.15,2013-05-14 01:52:00,
2013-05-13 20:58:00,65.1,45.5,29.80,SSE,153,4.0,5.0,49,0.00,,,0.00,Wunderground v.1.15,2013-05-14 01:58:00,
2013-05-13 21:04:00,64.8,45.7,29.80,SE,146,4.0,4.0,50,0.00,,,0.00,Wunderground v.1.15,2013-05-14 02:04:00,
2013-05-13 21:10:00,64.5,45.4,29.80,SSE,155,3.0,3.0,50,0.00,,,0.00,Wunderground v.1.15,2013-05-14 02:10:00,
2013-05-13 21:16:00,64.2,45.2,29.80,SE,143,3.0,4.0,50,0.00,,,0.00,Wunderground v.1.15,2013-05-14 02:16:00,
2013-05-13 21:22:00,63.8,45.3,29.80,South,184,3.0,5.0,51,0.00,,,0.00,Wunderground v.1.15,2013-05-14 02:22:00,
2013-05-13 21:28:00,63.6,45.1,29.79,SE,128,3.0,5.0,51,0.00,,,0.00,Wunderground v.1.15,2013-05-14 02:28:00,
2013-05-13 21:34:00,63.3,44.9,29.79,South,170,3.0,4.0,51,0.00,,,0.00,Wunderground v.1.15,2013-05-14 02:34:00,
2013-05-13 21:40:00,63.0,45.1,29.79,SSE,158,3.0,3.0,52,0.00,,,0.00,Wunderground v.1.15,2013-05-14 02:40:00,
2013-05-13 21:46:00,62.8,44.9,29.79,SSE,150,4.0,4.0,52,0.00,,,0.00,Wunderground v.1.15,2013-05-14 02:46:00,
2013-05-13 21:52:00,62.6,45.2,29.79,SE,140,4.0,5.0,53,0.00,,,0.00,Wunderground v.1.15,2013-05-14 02:52:00,
2013-05-13 21:58:00,62.5,45.6,29.79,SSW,194,4.0,5.0,54,0.00,,,0.00,Wunderground v.1.15,2013-05-14 02:58:00,
2013-05-13 22:04:00,62.3,45.9,29.78,ESE,121,4.0,5.0,55,0.00,,,0.00,Wunderground v.1.15,2013-05-14 03:04:00,
2013-05-13 22:10:00,62.2,46.3,29.78,WSW,250,4.0,4.0,56,0.00,,,0.00,Wunderground v.1.15,2013-05-14 03:10:00,
2013-05-13 22:16:00,62.1,46.7,29.78,SE,146,4.0,6.0,57,0.00,,,0.00,Wunderground v.1.15,2013-05-14 03:16:00,
2013-05-13 22:22:00,62.0,46.6,29.78,SSE,151,4.0,4.0,57,0.00,,,0.00,Wunderground v.1.15,2013-05-14 03:22:00,
2013-05-13 22:28:00,61.8,46.4,29.78,SE,146,4.0,5.0,57,0.00,,,0.00,Wunderground v.1.15,2013-05-14 03:28:00,
2013-05-13 22:34:00,61.7,46.8,29.78,SSE,152,4.0,4.0,58,0.00,,,0.00,Wunderground v.1.15,2013-05-14 03:34:00,
2013-05-13 22:40:00,61.5,46.6,29.77,South,170,4.0,4.0,58,0.00,,,0.00,Wunderground v.1.15,2013-05-14 03:40:00,
2013-05-13 22:46:00,61.4,46.9,29.77,ESE,122,5.0,5.0,59,0.00,,,0.00,Wunderground v.1.15,2013-05-14 03:46:00,
2013-05-13 22:52:00,61.2,47.2,29.77,SE,135,4.0,5.0,60,0.00,,,0.00,Wunderground v.1.15,2013-05-14 03:52:00,
2013-05-13 22:58:00,60.9,46.9,29.76,SSE,165,4.0,5.0,60,0.00,,,0.00,Wunderground v.1.15,2013-05-14 03:58:00,
2013-05-13 23:02:00,60.8,46.8,29.76,SE,143,4.0,4.0,60,0.00,,,0.00,Wunderground v.1.15,2013-05-14 04:02:00,
2013-05-13 23:04:00,60.7,46.7,29.76,SE,136,4.0,4.0,60,0.00,,,0.00,Wunderground v.1.15,2013-05-14 04:04:00,
2013-05-13 23:06:00,60.7,46.7,29.76,SSE,155,4.0,4.0,60,0.00,,,0.00,Wunderground v.1.15,2013-05-14 04:06:00,
2013-05-13 23:12:00,60.4,46.4,29.76,SSE,162,4.0,4.0,60,0.00,,,0.00,Wunderground v.1.15,2013-05-14 04:12:00,
2013-05-13 23:18:00,60.2,46.7,29.76,SE,138,4.0,7.0,61,0.00,,,0.00,Wunderground v.1.15,2013-05-14 04:18:00,
2013-05-13 23:24:00,60.1,46.6,29.76,SSE,161,4.0,5.0,61,0.00,,,0.00,Wunderground v.1.15,2013-05-14 04:24:00,
2013-05-13 23:30:00,59.9,46.4,29.75,South,173,4.0,4.0,61,0.00,,,0.00,Wunderground v.1.15,2013-05-14 04:30:00,
2013-05-13 23:36:00,59.7,46.7,29.75,SE,143,4.0,4.0,62,0.00,,,0.00,Wunderground v.1.15,2013-05-14 04:36:00,
2013-05-13 23:42:00,59.5,46.5,29.75,SE,129,3.0,5.0,62,0.00,,,0.00,Wunderground v.1.15,2013-05-14 04:42:00,
2013-05-13 23:48:00,59.3,46.3,29.75,SE,146,4.0,5.0,62,0.00,,,0.00,Wunderground v.1.15,2013-05-14 04:48:00,
2013-05-13 23:54:00,59.2,46.6,29.74,SE,144,4.0,4.0,63,0.00,,,0.00,Wunderground v.1.15,2013-05-14 04:54:00,